Noble, IL

6:44 AM CST on February 20, 2017 (GMT -0600)
Olney-Noble

Weather History for KOLY - August, 2012

Change the Weather History Date:

Thursday, August 16, 2012

  Actual Average (KEVV) Record (KEVV)
Temperature  
Mean Temperature 78 °F -  
Max Temperature 93 °F 87 °F 100 °F (1988)
Min Temperature 64 °F 67 °F 49 °F (1963)
Cooling Degree Days 14    
Growing Degree Days 28 (Base 50)    
Moisture  
Dew Point 65 °F    
Average Humidity 78    
Maximum Humidity 100    
Minimum Humidity 49    
Precipitation  
Precipitation 0.67 in - - ()
Sea Level Pressure  
Sea Level Pressure 29.93 in    
Wind  
Wind Speed 4 mph (South)    
Max Wind Speed 24 mph    
Max Gust Speed 40 mph    
Visibility 9 miles    
Events Rain , Thunderstorm    
Averages and records for this station are not official NWS values.
T = Trace of Precipitation, MM = Missing Value Source: NWS Daily Summary

Daily Weather History Graph

Daily Weather History Graph

Search for Another Location

Airport or City:

Trip Planner

Search our weather history database for the weather conditions in past years. The results will help you decide how hot, cold, wet, or windy it might be!

Date:

Astronomy

Aug. 16, 2012 Rise Set
Actual Time 6:07 AM CDT 7:45 PM CDT
Civil Twilight 5:39 AM CDT 8:13 PM CDT
Nautical Twilight 5:05 AM CDT 8:47 PM CDT
Astronomical Twilight 4:29 AM CDT 9:23 PM CDT
Moon 5:06 AM CDT (8/16) 6:54 PM CDT (8/16)
Length of Visible Light 14h 33m
Length of Day
13h 37m
Waning Crescent, 1% of the Moon is Illuminated
Aug 16
Waning Crescent
Aug 17
New
Aug 24
First Quarter
Aug 31
Full
Sep 8
Last Quarter

Hourly Weather History & Observations

Time (CDT) Temp. Heat Index Dew Point Humidity Pressure Visibility Wind Dir Wind Speed Gust Speed Precip Events Conditions
12:15 AM 68.0 °F - 60.8 °F 78% 29.97 in 10.0 mi Calm Calm - N/A   Clear
12:35 AM 66.2 °F - 60.8 °F 83% 29.97 in 10.0 mi Calm Calm - N/A   Clear
12:55 AM 66.2 °F - 60.8 °F 83% 29.97 in 10.0 mi Calm Calm - N/A   Clear
1:15 AM 66.2 °F - 59.0 °F 78% 29.97 in 10.0 mi Calm Calm - N/A   Clear
1:35 AM 68.0 °F - 60.8 °F 78% 29.97 in 10.0 mi Calm Calm - N/A   Clear
1:55 AM 68.0 °F - 60.8 °F 78% 29.97 in 10.0 mi Calm Calm - N/A   Clear
2:15 AM 68.0 °F - 60.8 °F 78% 29.97 in 10.0 mi Calm Calm - N/A   Clear
2:35 AM 68.0 °F - 60.8 °F 78% 29.97 in 10.0 mi Calm Calm - N/A   Clear
2:55 AM 66.2 °F - 60.8 °F 83% 29.97 in 10.0 mi Calm Calm - N/A   Clear
3:15 AM 66.2 °F - 60.8 °F 83% 29.97 in 10.0 mi Calm Calm - N/A   Clear
3:35 AM 66.2 °F - 60.8 °F 83% 29.96 in 10.0 mi South 3.5 mph - N/A   Clear
3:55 AM 66.2 °F - 60.8 °F 83% 29.96 in 10.0 mi Calm Calm - N/A   Clear
4:15 AM 66.2 °F - 60.8 °F 83% 29.96 in 10.0 mi Calm Calm - N/A   Clear
4:35 AM 64.4 °F - 60.8 °F 88% 29.97 in 10.0 mi Calm Calm - N/A   Clear
4:55 AM 66.2 °F - 60.8 °F 83% 29.97 in 10.0 mi Calm Calm - N/A   Clear
5:15 AM 66.2 °F - 60.8 °F 83% 29.96 in 10.0 mi South 3.5 mph - N/A   Clear
5:35 AM 66.2 °F - 60.8 °F 83% 29.95 in 10.0 mi SSE 3.5 mph - N/A   Clear
5:55 AM 66.2 °F - 60.8 °F 83% 29.94 in 10.0 mi South 4.6 mph - N/A   Clear
6:15 AM 66.2 °F - 60.8 °F 83% 29.94 in 10.0 mi South 3.5 mph - N/A   Clear
6:35 AM 68.0 °F - 62.6 °F 83% 29.95 in 10.0 mi South 4.6 mph - N/A   Clear
6:55 AM 68.0 °F - 62.6 °F 83% 29.94 in 10.0 mi SSE 5.8 mph - N/A   Clear
7:15 AM 71.6 °F - 62.6 °F 73% 29.95 in 10.0 mi South 5.8 mph - N/A   Clear
7:35 AM 71.6 °F - 62.6 °F 73% 29.95 in 10.0 mi SSE 5.8 mph - N/A   Clear
7:55 AM 73.4 °F - 64.4 °F 73% 29.94 in 10.0 mi SSE 6.9 mph - N/A   Clear
8:15 AM 75.2 °F - 64.4 °F 69% 29.94 in 10.0 mi South 8.1 mph - N/A   Clear
8:35 AM 75.2 °F - 64.4 °F 69% 29.93 in 10.0 mi South 4.6 mph - N/A   Clear
8:55 AM 78.8 °F - 64.4 °F 61% 29.94 in 10.0 mi South 8.1 mph - N/A   Clear
9:15 AM 80.6 °F 82.7 °F 66.2 °F 61% 29.94 in 10.0 mi SSW 5.8 mph - N/A   Clear
9:35 AM 82.4 °F 84.6 °F 66.2 °F 58% 29.95 in 10.0 mi South 6.9 mph - N/A   Clear
9:55 AM 84.2 °F 87.3 °F 68.0 °F 58% 29.95 in 10.0 mi SSW 6.9 mph - N/A   Clear
10:15 AM 87.8 °F 91.4 °F 68.0 °F 52% 29.94 in 10.0 mi SSW 8.1 mph - N/A   Clear
10:35 AM 87.8 °F 91.4 °F 68.0 °F 52% 29.94 in 10.0 mi South 8.1 mph - N/A   Clear
10:55 AM 89.6 °F 94.7 °F 69.8 °F 52% 29.94 in 10.0 mi South 9.2 mph - N/A Thunderstorm Clear
11:15 AM 89.6 °F 94.7 °F 69.8 °F 52% 29.93 in 10.0 mi SSW 8.1 mph - N/A   Clear
11:35 AM 89.6 °F 94.7 °F 69.8 °F 52% 29.93 in 10.0 mi SSW 6.9 mph - N/A   Scattered Clouds
11:55 AM 89.6 °F 94.7 °F 69.8 °F 52% 29.93 in 10.0 mi South 8.1 mph - N/A   Scattered Clouds
12:15 PM 89.6 °F 94.7 °F 69.8 °F 52% 29.94 in 10.0 mi SSW 8.1 mph - N/A   Mostly Cloudy
12:35 PM 89.6 °F 94.7 °F 69.8 °F 52% 29.91 in 10.0 mi South 6.9 mph - N/A   Unknown
2:35 PM 93.2 °F 100.5 °F 71.6 °F 49% 29.85 in 10.0 mi South 13.8 mph 19.6 mph N/A   Clear
3:15 PM 93.2 °F 100.5 °F 71.6 °F 49% 29.78 in 10.0 mi SSE 12.7 mph 21.9 mph N/A   Clear
3:35 PM 93.2 °F 100.5 °F 71.6 °F 49% 29.76 in 10.0 mi South 17.3 mph 26.5 mph N/A   Clear
3:55 PM 91.4 °F 98.4 °F 71.6 °F 52% 29.76 in 10.0 mi SSE 12.7 mph 24.2 mph N/A   Clear
4:15 PM 89.6 °F 96.2 °F 71.6 °F 55% 29.80 in 10.0 mi South 8.1 mph 19.6 mph N/A   Clear
4:35 PM 89.6 °F 96.2 °F 71.6 °F 55% 29.84 in 10.0 mi South 6.9 mph - N/A Thunderstorm Scattered Clouds
4:55 PM 73.4 °F - 64.4 °F 73% 29.89 in 4.0 mi NW 21.9 mph 40.3 mph 0.01 in Rain , Thunderstorm Heavy Thunderstorms and Rain
5:15 PM 66.2 °F - 66.2 °F 100% 29.91 in 4.0 mi WNW 24.2 mph 33.4 mph 0.26 in Rain , Thunderstorm Heavy Thunderstorms and Rain
5:35 PM 66.2 °F - 66.2 °F 100% 29.89 in 10.0 mi WNW 10.4 mph 19.6 mph 0.48 in Rain , Thunderstorm Light Thunderstorms and Rain
5:55 PM 66.2 °F - 66.2 °F 100% 29.94 in 7.0 mi NE 6.9 mph - 0.01 in Rain , Thunderstorm Rain
6:15 PM 66.2 °F - 66.2 °F 100% 29.91 in 7.0 mi East 4.6 mph - 0.05 in Rain , Thunderstorm Thunderstorms and Rain
6:35 PM 66.2 °F - 66.2 °F 100% 29.89 in 7.0 mi ESE 9.2 mph - 0.07 in Rain , Thunderstorm Light Thunderstorms and Rain
6:55 PM 66.2 °F - 66.2 °F 100% 29.89 in 10.0 mi SE 8.1 mph - 0.01 in Rain , Thunderstorm Light Thunderstorms and Rain
7:35 PM 66.2 °F - 66.2 °F 100% 29.93 in 7.0 mi SSE 6.9 mph - 0.05 in Rain , Thunderstorm Thunderstorms and Rain
7:55 PM 66.2 °F - 66.2 °F 100% 29.93 in 7.0 mi SE 6.9 mph - 0.02 in Rain Rain
8:15 PM 66.2 °F - 66.2 °F 100% 29.94 in 5.0 mi South 5.8 mph - 0.02 in Rain Light Rain
8:35 PM 66.2 °F - 66.2 °F 100% 29.92 in 7.0 mi SSE 3.5 mph - 0.03 in Rain Light Rain
8:55 PM 66.2 °F - 66.2 °F 100% 29.92 in 7.0 mi SE 4.6 mph - N/A Rain Light Rain
9:15 PM 66.2 °F - 66.2 °F 100% 29.94 in 5.0 mi Calm Calm - N/A Rain Light Rain
9:35 PM 66.2 °F - 66.2 °F 100% 29.95 in 5.0 mi South 3.5 mph - N/A   Overcast
9:55 PM 68.0 °F - 68.0 °F 100% 29.94 in 4.0 mi Calm Calm - N/A   Overcast
10:15 PM 68.0 °F - 68.0 °F 100% 29.94 in 4.0 mi Calm Calm - N/A   Overcast
10:35 PM 68.0 °F - 68.0 °F 100% 29.95 in 7.0 mi SSE 3.5 mph - N/A   Overcast
11:35 PM 68.0 °F - 68.0 °F 100% 29.94 in 4.0 mi Calm Calm - 0.03 in Rain Light Rain
11:55 PM 69.8 °F - 69.8 °F 100% 29.94 in 4.0 mi Calm Calm - N/A   Overcast